,,Stat6,,Stat2,,Stat8,,Stat9,,Stat10,,Wind1,,Wind1,
time,status,PA1M_AVG,status,PR1M_SUM,status,RH1M_AVG,status,SR1M_AVG,status,TA1M_AVG,status,W1dAve1m,status,W1sAve1m,
2008-05-26, 00:00:00,VALID,917.395,VALID,0,VALID,100,VALID,-0.0339617,VALID,18.6598,VALID,137,VALID,0.358073,
2008-05-26, 00:01:00,VALID,917.372,VALID,0,VALID,100,VALID,0,VALID,18.673,VALID,128,VALID,1.24073,
2008-05-26, 00:02:00,VALID,917.374,VALID,0,VALID,100,VALID,-0.0169808,VALID,18.6795,VALID,117,VALID,0.890625,
2008-05-26, 00:03:00,VALID,917.349,VALID,0,VALID,100,VALID,0,VALID,18.6568,VALID,100,VALID,0.363467,
2008-05-26, 00:04:00,VALID,917.325,VALID,0,VALID,100,VALID,0.0169808,VALID,18.6371,VALID,128,VALID,1.0385,
2008-05-26, 00:05:00,VALID,917.311,VALID,0,VALID,100,VALID,0,VALID,18.6463,VALID,145,VALID,0.685547,
2008-05-26, 00:06:00,VALID,917.302,VALID,0,VALID,100,VALID,-0.0169808,VALID,18.6626,VALID,139,VALID,0.948765,
2008-05-26, 00:07:00,VALID,917.29,VALID,0,VALID,100,VALID,0,VALID,18.666,VALID,144,VALID,0.935138,
2008-05-26, 00:08:00,VALID,917.287,VALID,0,VALID,100,VALID,0,VALID,18.6827,VALID,148,VALID,1.43093,
2008-05-26, 00:09:00,VALID,917.259,VALID,0,VALID,100,VALID,0,VALID,18.689,VALID,154,VALID,1.3459,
2008-05-26, 00:10:00,VALID,917.238,VALID,0,VALID,100,VALID,0,VALID,18.6955,VALID,148,VALID,0.619673,
2008-05-26, 00:11:00,VALID,917.216,VALID,0,VALID,100,VALID,0,VALID,18.6825,VALID,145,VALID,0.623402,
2008-05-26, 00:12:00,VALID,917.206,VALID,0,VALID,100,VALID,-0.0169808,VALID,18.6792,VALID,183,VALID,0.526486,
2008-05-26, 00:13:00,VALID,917.19,VALID,0,VALID,100,VALID,0,VALID,18.676,VALID,168,VALID,0.986328,
2008-05-26, 00:14:00,VALID,917.182,VALID,0,VALID,100,VALID,0.0169808,VALID,18.6825,VALID,165,VALID,1.08232,
2008-05-26, 00:15:00,VALID,917.166,VALID,0,VALID,100,VALID,0,VALID,18.6795,VALID,161,VALID,0.70206,
2008-05-26, 00:16:00,VALID,917.154,VALID,0,VALID,100,VALID,0.0169808,VALID,18.6762,VALID,165,VALID,0.951308,
2008-05-26, 00:17:00,VALID,917.132,VALID,0,VALID,100,VALID,-0.0169808,VALID,18.6857,VALID,169,VALID,1.44186,
2008-05-26, 00:18:00,VALID,917.126,VALID,0,VALID,100,VALID,-0.0169808,VALID,18.6957,VALID,162,VALID,1.31574,
2008-05-26, 00:19:00,VALID,917.116,VALID,0,VALID,100,VALID,0,VALID,18.6827,VALID,165,VALID,1.18843,
2008-05-26, 00:20:00,VALID,917.111,VALID,0,VALID,100,VALID,0.0169808,VALID,18.6857,VALID,172,VALID,1.09304,
2008-05-26, 00:21:00,VALID,917.112,VALID,0,VALID,100,VALID,0,VALID,18.6792,VALID,174,VALID,1.40141,
2008-05-26, 00:22:00,VALID,917.101,VALID,0,VALID,100,VALID,0,VALID,18.666,VALID,164,VALID,1.09884,
2008-05-26, 00:23:00,VALID,917.108,VALID,0,VALID,100,VALID,-0.0339617,VALID,18.6607,VALID,164,VALID,0.8837,
2008-05-26, 00:24:00,VALID,917.116,VALID,0,VALID,100,VALID,-0.0849042,VALID,18.6517,VALID,162,VALID,1.11483,
2008-05-26, 00:25:00,VALID,917.096,VALID,0,VALID,100,VALID,-0.101885,VALID,18.6415,VALID,161,VALID,1.40067,
2008-05-26, 00:26:00,VALID,917.067,VALID,0,VALID,100,VALID,-0.0849042,VALID,18.6417,VALID,185,VALID,1.1657,
2008-05-26, 00:27:00,VALID,917.023,VALID,0,VALID,100,VALID,-0.0849042,VALID,18.6482,VALID,187,VALID,1.47781,
2008-05-26, 00:28:00,VALID,916.997,VALID,0,VALID,100,VALID,-0.0849042,VALID,18.6517,VALID,165,VALID,1.127,
2008-05-26, 00:29:00,VALID,916.98,VALID,0,VALID,100,VALID,-0.101885,VALID,18.6547,VALID,170,VALID,1.37671,
2008-05-26, 00:30:00,VALID,916.96,VALID,0.2,VALID,100,VALID,-0.101885,VALID,18.6482,VALID,166,VALID,1.2859,
2008-05-26, 00:31:00,VALID,916.948,VALID,0,VALID,100,VALID,-0.101885,VALID,18.6478,VALID,161,VALID,1.04251,
2008-05-26, 00:32:00,VALID,916.941,VALID,0,VALID,100,VALID,-0.101885,VALID,18.6485,VALID,157,VALID,1.06938,
2008-05-26, 00:33:00,VALID,916.951,VALID,0,VALID,100,VALID,-0.101885,VALID,18.6417,VALID,140,VALID,0.980664,
2008-05-26, 00:34:00,VALID,916.954,VALID,0,VALID,100,VALID,-0.101885,VALID,18.6188,VALID,138,VALID,1.03247,
2008-05-26, 00:35:00,VALID,916.955,VALID,0,VALID,100,VALID,-0.101885,VALID,18.6322,VALID,142,VALID,0.940739,
2008-05-26, 00:36:00,VALID,916.933,VALID,0,VALID,100,VALID,-0.101885,VALID,18.632,VALID,170,VALID,0.978379,
2008-05-26, 00:37:00,VALID,916.92,VALID,0,VALID,100,VALID,-0.101885,VALID,18.6288,VALID,143,VALID,0.989139,
2008-05-26, 00:38:00,VALID,916.893,VALID,0,VALID,100,VALID,-0.0339617,VALID,18.6114,VALID,138,VALID,0.826882,
2008-05-26, 00:39:00,VALID,916.869,VALID,0,VALID,100,VALID,0,VALID,18.5882,VALID,150,VALID,0.563616,
2008-05-26, 00:40:00,VALID,916.845,VALID,0,VALID,100,VALID,0.0169808,VALID,18.5815,VALID,151,VALID,0.856771,
2008-05-26, 00:41:00,VALID,916.844,VALID,0,VALID,100,VALID,0,VALID,18.5653,VALID,142,VALID,0.78404,
2008-05-26, 00:42:00,VALID,916.833,VALID,0,VALID,100,VALID,0,VALID,18.5528,VALID,136,VALID,0.410156,
2008-05-26, 00:43:00,VALID,916.834,VALID,0,VALID,100,VALID,0.0169808,VALID,18.5363,VALID,130,VALID,0.863281,
2008-05-26, 00:44:00,VALID,916.819,VALID,0,VALID,100,VALID,0.0169808,VALID,18.5233,VALID,131,VALID,0.739583,
2008-05-26, 00:45:00,VALID,916.793,VALID,0,VALID,100,VALID,0.0339617,VALID,18.5009,VALID,113,VALID,0.945898,
2008-05-26, 00:46:00,VALID,916.765,VALID,0,VALID,100,VALID,0.0339617,VALID,18.4747,VALID,111,VALID,0.266197,
2008-05-26, 00:47:00,VALID,916.752,VALID,0,VALID,100,VALID,0,VALID,18.4682,VALID,118,VALID,0.729288,
2008-05-26, 00:48:00,VALID,916.739,VALID,0,VALID,100,VALID,0,VALID,18.4455,VALID,117,VALID,0.695131,
2008-05-26, 00:49:00,VALID,916.73,VALID,0,VALID,100,VALID,0,VALID,18.4425,VALID,116,VALID,0.802734,
2008-05-26, 00:50:00,VALID,916.727,VALID,0,VALID,100,VALID,0.0169808,VALID,18.4328,VALID,107,VALID,0.775391,
2008-05-26, 00:51:00,VALID,916.716,VALID,0,VALID,100,VALID,-0.0169808,VALID,18.4196,VALID,93,VALID,0.896621,
2008-05-26, 00:52:00,VALID,916.702,VALID,0,VALID,100,VALID,0,VALID,18.3938,VALID,83,VALID,1.29297,
2008-05-26, 00:53:00,VALID,916.695,VALID,0,VALID,100,VALID,0.0679233,VALID,18.3996,VALID,84,VALID,1.33803,
2008-05-26, 00:54:00,VALID,916.665,VALID,0,VALID,100,VALID,0.101885,VALID,18.4117,VALID,84,VALID,1.46148,
2008-05-26, 00:55:00,VALID,916.633,VALID,0,VALID,100,VALID,0.101885,VALID,18.4214,VALID,89,VALID,1.32813,
2008-05-26, 00:56:00,VALID,916.597,VALID,0,VALID,100,VALID,0.0849042,VALID,18.4244,VALID,90,VALID,1.05382,
2008-05-26, 00:57:00,VALID,916.536,VALID,0,VALID,100,VALID,0.101885,VALID,18.4469,VALID,94,VALID,0.67691,
2008-05-26, 00:58:00,VALID,916.5,VALID,0,VALID,100,VALID,0.101885,VALID,18.4733,VALID,111,VALID,0.997024,
2008-05-26, 00:59:00,VALID,916.478,VALID,0,VALID,100,VALID,0.118866,VALID,18.4798,VALID,112,VALID,0.83559,
2008-05-26, 01:00:00,VALID,916.471,VALID,0,VALID,100,VALID,0.0849042,VALID,18.4768,VALID,108,VALID,0.806445,
2008-05-26, 01:01:00,VALID,916.48,VALID,0,VALID,100,VALID,0.101885,VALID,18.4568,VALID,101,VALID,1.09524,
2008-05-26, 01:02:00,VALID,916.484,VALID,0,VALID,100,VALID,0.101885,VALID,18.4411,VALID,85,VALID,0.739329,
2008-05-26, 01:03:00,VALID,916.487,VALID,0,VALID,100,VALID,0.0849042,VALID,18.3693,VALID,70,VALID,0.770064,
2008-05-26, 01:04:00,VALID,916.498,VALID,0,VALID,100,VALID,0.118866,VALID,18.3466,VALID,93,VALID,0.665799,
2008-05-26, 01:05:00,VALID,916.505,VALID,0,VALID,100,VALID,0.118866,VALID,18.3628,VALID,93,VALID,0.0107422,
2008-05-26, 01:06:00,VALID,916.519,VALID,0,VALID,100,VALID,0.118866,VALID,18.3528,VALID,82,VALID,0,
2008-05-26, 01:07:00,VALID,916.525,VALID,0,VALID,100,VALID,0.135847,VALID,18.3336,VALID,86,VALID,0,
2008-05-26, 01:08:00,VALID,916.534,VALID,0,VALID,100,VALID,0.0339617,VALID,18.2989,VALID,86,VALID,0,
2008-05-26, 01:09:00,VALID,916.539,VALID,0,VALID,100,VALID,0,VALID,18.2572,VALID,84,VALID,0,
2008-05-26, 01:10:00,VALID,916.534,VALID,0,VALID,100,VALID,-0.0169808,VALID,18.2342,VALID,57,VALID,0,
2008-05-26, 01:11:00,VALID,916.544,VALID,0,VALID,100,VALID,0,VALID,18.2509,VALID,48,VALID,0.547828,
2008-05-26, 01:12:00,VALID,916.541,VALID,0,VALID,100,VALID,0.0169808,VALID,18.2799,VALID,55,VALID,0.942042,
2008-05-26, 01:13:00,VALID,916.543,VALID,0,VALID,100,VALID,0,VALID,18.2924,VALID,67,VALID,0.747743,
2008-05-26, 01:14:00,VALID,916.528,VALID,0,VALID,100,VALID,0,VALID,18.2831,VALID,82,VALID,0.329723,
2008-05-26, 01:15:00,VALID,916.518,VALID,0,VALID,100,VALID,0.0169808,VALID,18.2896,VALID,106,VALID,0.653587,
2008-05-26, 01:16:00,VALID,916.505,VALID,0,VALID,100,VALID,0.0169808,VALID,18.2834,VALID,128,VALID,0.771151,
2008-05-26, 01:17:00,VALID,916.479,VALID,0,VALID,100,VALID,-0.0169808,VALID,18.2901,VALID,136,VALID,0.563772,
2008-05-26, 01:18:00,VALID,916.46,VALID,0,VALID,100,VALID,0.0169808,VALID,18.2898,VALID,138,VALID,0.436384,
2008-05-26, 01:19:00,VALID,916.433,VALID,0,VALID,100,VALID,0,VALID,18.2896,VALID,138,VALID,0.403646,
2008-05-26, 01:20:00,VALID,916.405,VALID,0,VALID,100,VALID,0.0339617,VALID,18.2956,VALID,131,VALID,0.685138,
2008-05-26, 01:21:00,VALID,916.388,VALID,0,VALID,100,VALID,0.0169808,VALID,18.2926,VALID,123,VALID,0.699319,
2008-05-26, 01:22:00,VALID,916.355,VALID,0,VALID,100,VALID,0.0169808,VALID,18.2695,VALID,103,VALID,0.602865,
2008-05-26, 01:23:00,VALID,916.341,VALID,0,VALID,100,VALID,0,VALID,18.2507,VALID,75,VALID,0.719866,
2008-05-26, 01:24:00,VALID,916.329,VALID,0,VALID,100,VALID,0.0169808,VALID,18.2345,VALID,90,VALID,0.750545,
2008-05-26, 01:25:00,VALID,916.316,VALID,0,VALID,100,VALID,-0.0169808,VALID,18.215,VALID,80,VALID,0.846227,
2008-05-26, 01:26:00,VALID,916.314,VALID,0,VALID,100,VALID,0,VALID,18.2245,VALID,106,VALID,0.630664,
2008-05-26, 01:27:00,VALID,916.31,VALID,0,VALID,100,VALID,0,VALID,18.2085,VALID,81,VALID,0.563772,
2008-05-26, 01:28:00,VALID,916.301,VALID,0,VALID,100,VALID,-0.0169808,VALID,18.2021,VALID,78,VALID,0.193216,
2008-05-26, 01:29:00,VALID,916.297,VALID,0,VALID,100,VALID,0,VALID,18.2153,VALID,109,VALID,0.252418,
2008-05-26, 01:30:00,VALID,916.275,VALID,0,VALID,100,VALID,0,VALID,18.2083,VALID,111,VALID,0.0281613,
2008-05-26, 01:31:00,VALID,916.243,VALID,0,VALID,100,VALID,0,VALID,18.2347,VALID,110,VALID,0.00171494,
2008-05-26, 01:32:00,VALID,916.224,VALID,0,VALID,100,VALID,0,VALID,18.2403,VALID,110,VALID,0,
2008-05-26, 01:33:00,VALID,916.203,VALID,0,VALID,100,VALID,0,VALID,18.2704,VALID,110,VALID,0,
2008-05-26, 01:34:00,VALID,916.176,VALID,0,VALID,100,VALID,-0.0339617,VALID,18.2739,VALID,110,VALID,0,
2008-05-26, 01:35:00,VALID,916.157,VALID,0,VALID,100,VALID,0,VALID,18.2864,VALID,110,VALID,0,
2008-05-26, 01:36:00,VALID,916.132,VALID,0,VALID,100,VALID,-0.0169808,VALID,18.3123,VALID,110,VALID,0,
2008-05-26, 01:37:00,VALID,916.14,VALID,0,VALID,100,VALID,0,VALID,18.2961,VALID,110,VALID,0,
2008-05-26, 01:38:00,VALID,916.129,VALID,0,VALID,100,VALID,0,VALID,18.2477,VALID,110,VALID,0,
2008-05-26, 01:39:00,VALID,916.106,VALID,0,VALID,100,VALID,0,VALID,18.2315,VALID,110,VALID,0,
2008-05-26, 01:40:00,VALID,916.115,VALID,0,VALID,100,VALID,0,VALID,18.2574,VALID,110,VALID,0,
2008-05-26, 01:41:00,VALID,916.116,VALID,0,VALID,100,VALID,-0.0169808,VALID,18.2674,VALID,110,VALID,0,
2008-05-26, 01:42:00,VALID,916.111,VALID,0,VALID,100,VALID,0,VALID,18.2542,VALID,110,VALID,0,
2008-05-26, 01:43:00,VALID,916.11,VALID,0,VALID,100,VALID,0.0169808,VALID,18.2572,VALID,110,VALID,0.0107887,
2008-05-26, 01:44:00,VALID,916.131,VALID,0,VALID,100,VALID,0,VALID,18.2539,VALID,118,VALID,0.725991,
2008-05-26, 01:45:00,VALID,916.131,VALID,0,VALID,100,VALID,0,VALID,18.3193,VALID,133,VALID,0.84266,
2008-05-26, 01:46:00,VALID,916.113,VALID,0,VALID,100,VALID,0,VALID,18.3644,VALID,133,VALID,0.860863,
2008-05-26, 01:47:00,VALID,916.089,VALID,0,VALID,100,VALID,0,VALID,18.423,VALID,133,VALID,0.688616,
2008-05-26, 01:48:00,VALID,916.078,VALID,0,VALID,100,VALID,0.0339617,VALID,18.4515,VALID,138,VALID,0.638445,
2008-05-26, 01:49:00,VALID,916.066,VALID,0,VALID,100,VALID,0.0339617,VALID,18.461,VALID,147,VALID,0.386133,
2008-05-26, 01:50:00,VALID,916.064,VALID,0,VALID,100,VALID,0.0169808,VALID,18.467,VALID,134,VALID,0.398801,
2008-05-26, 01:51:00,VALID,916.049,VALID,0,VALID,100,VALID,0.0169808,VALID,18.4677,VALID,128,VALID,0.00111607,
2008-05-26, 01:52:00,VALID,916.028,VALID,0,VALID,100,VALID,0.0679233,VALID,18.4284,VALID,128,VALID,0.146984,
2008-05-26, 01:53:00,VALID,916.005,VALID,0,VALID,100,VALID,-0.0339617,VALID,18.4006,VALID,125,VALID,0.181734,
2008-05-26, 01:54:00,VALID,915.98,VALID,0,VALID,100,VALID,-0.101885,VALID,18.3843,VALID,101,VALID,0.317835,
2008-05-26, 01:55:00,VALID,915.954,VALID,0,VALID,100,VALID,-0.101885,VALID,18.3945,VALID,96,VALID,0,
2008-05-26, 01:56:00,VALID,915.93,VALID,0,VALID,100,VALID,-0.0679233,VALID,18.3848,VALID,96,VALID,0,
2008-05-26, 01:57:00,VALID,915.918,VALID,0,VALID,100,VALID,-0.0849042,VALID,18.3751,VALID,96,VALID,0,
2008-05-26, 01:58:00,VALID,915.89,VALID,0,VALID,100,VALID,-0.0849042,VALID,18.3619,VALID,96,VALID,0,
2008-05-26, 01:59:00,VALID,915.876,VALID,0,VALID,100,VALID,-0.0849042,VALID,18.3593,VALID,96,VALID,0,
2008-05-26, 02:00:00,VALID,915.868,VALID,0,VALID,100,VALID,-0.101885,VALID,18.3496,VALID,96,VALID,0,
2008-05-26, 02:01:00,VALID,915.86,VALID,0,VALID,100,VALID,-0.101885,VALID,18.3366,VALID,96,VALID,0,
2008-05-26, 02:02:00,VALID,915.861,VALID,0,VALID,100,VALID,-0.0849042,VALID,18.3234,VALID,96,VALID,0,
2008-05-26, 02:03:00,VALID,915.851,VALID,0,VALID,100,VALID,-0.0679233,VALID,18.3007,VALID,96,VALID,0,
2008-05-26, 02:04:00,VALID,915.842,VALID,0,VALID,100,VALID,-0.118866,VALID,18.2778,VALID,98,VALID,0,
2008-05-26, 02:05:00,VALID,915.819,VALID,0,VALID,100,VALID,-0.101885,VALID,18.2817,VALID,101,VALID,0,
2008-05-26, 02:06:00,VALID,915.814,VALID,0,VALID,100,VALID,-0.118866,VALID,18.285,VALID,101,VALID,0,
2008-05-26, 02:07:00,VALID,915.787,VALID,0,VALID,100,VALID,-0.118866,VALID,18.3012,VALID,101,VALID,0,
2008-05-26, 02:08:00,VALID,915.776,VALID,0,VALID,100,VALID,-0.0339617,VALID,18.2938,VALID,101,VALID,0,
2008-05-26, 02:09:00,VALID,915.768,VALID,0,VALID,100,VALID,0.0169808,VALID,18.2861,VALID,113,VALID,0,
2008-05-26, 02:10:00,VALID,915.756,VALID,0,VALID,100,VALID,0.0509425,VALID,18.3091,VALID,119,VALID,0.0751065,
2008-05-26, 02:11:00,VALID,915.771,VALID,0,VALID,100,VALID,0.0169808,VALID,18.3153,VALID,128,VALID,0.00285823,
2008-05-26, 02:12:00,VALID,915.773,VALID,0,VALID,100,VALID,0,VALID,18.329,VALID,128,VALID,0,
2008-05-26, 02:13:00,VALID,915.772,VALID,0,VALID,100,VALID,-0.0169808,VALID,18.335,VALID,129,VALID,0,
2008-05-26, 02:14:00,VALID,915.793,VALID,0,VALID,100,VALID,0,VALID,18.351,VALID,130,VALID,0,
2008-05-26, 02:15:00,VALID,915.782,VALID,0,VALID,100,VALID,0.0339617,VALID,18.354,VALID,130,VALID,0,
2008-05-26, 02:16:00,VALID,915.799,VALID,0,VALID,100,VALID,-0.0169808,VALID,18.3572,VALID,130,VALID,0,
2008-05-26, 02:17:00,VALID,915.814,VALID,0,VALID,100,VALID,0.0339617,VALID,18.3674,VALID,130,VALID,0,
2008-05-26, 02:18:00,VALID,915.813,VALID,0,VALID,100,VALID,0.0169808,VALID,18.3612,VALID,130,VALID,0,
2008-05-26, 02:19:00,VALID,915.817,VALID,0,VALID,100,VALID,0,VALID,18.3545,VALID,130,VALID,0,
2008-05-26, 02:20:00,VALID,915.806,VALID,0,VALID,100,VALID,0,VALID,18.3452,VALID,130,VALID,0,
2008-05-26, 02:21:00,VALID,915.805,VALID,0,VALID,100,VALID,0.0169808,VALID,18.3216,VALID,130,VALID,0,
2008-05-26, 02:22:00,VALID,915.806,VALID,0,VALID,100,VALID,0.0509425,VALID,18.3088,VALID,130,VALID,0,
2008-05-26, 02:23:00,VALID,915.808,VALID,0,VALID,100,VALID,0,VALID,18.2739,VALID,130,VALID,0,
2008-05-26, 02:24:00,VALID,915.809,VALID,0,VALID,100,VALID,-0.0339617,VALID,18.2417,VALID,110,VALID,0.0592296,
2008-05-26, 02:25:00,VALID,915.814,VALID,0,VALID,100,VALID,-0.0849042,VALID,18.2516,VALID,93,VALID,0.566501,
2008-05-26, 02:26:00,VALID,915.818,VALID,0,VALID,100,VALID,-0.101885,VALID,18.2752,VALID,90,VALID,0.0541548,
2008-05-26, 02:27:00,VALID,915.811,VALID,0,VALID,100,VALID,-0.101885,VALID,18.2421,VALID,89,VALID,0,
2008-05-26, 02:28:00,VALID,915.811,VALID,0,VALID,100,VALID,-0.0679233,VALID,18.2352,VALID,101,VALID,0.839286,
2008-05-26, 02:29:00,VALID,915.806,VALID,0,VALID,100,VALID,-0.101885,VALID,18.2553,VALID,118,VALID,0.894922,
2008-05-26, 02:30:00,VALID,915.815,VALID,0,VALID,100,VALID,-0.0849042,VALID,18.2618,VALID,119,VALID,0.876065,
2008-05-26, 02:31:00,VALID,915.806,VALID,0,VALID,100,VALID,-0.0849042,VALID,18.278,VALID,121,VALID,1.06726,
2008-05-26, 02:32:00,VALID,915.812,VALID,0,VALID,100,VALID,-0.0849042,VALID,18.2975,VALID,108,VALID,0.690104,
2008-05-26, 02:33:00,VALID,915.802,VALID,0,VALID,100,VALID,-0.101885,VALID,18.294,VALID,114,VALID,0.753819,
2008-05-26, 02:34:00,VALID,915.81,VALID,0,VALID,100,VALID,-0.101885,VALID,18.3107,VALID,90,VALID,0.834263,
2008-05-26, 02:35:00,VALID,915.812,VALID,0,VALID,100,VALID,-0.118866,VALID,18.2875,VALID,94,VALID,0.950945,
2008-05-26, 02:36:00,VALID,915.816,VALID,0,VALID,100,VALID,-0.0679233,VALID,18.2808,VALID,103,VALID,0.94043,
2008-05-26, 02:37:00,VALID,915.797,VALID,0,VALID,100,VALID,-0.0849042,VALID,18.2778,VALID,105,VALID,0.864211,
2008-05-26, 02:38:00,VALID,915.785,VALID,0,VALID,100,VALID,0,VALID,18.2644,VALID,110,VALID,0.709635,
2008-05-26, 02:39:00,VALID,915.772,VALID,0,VALID,100,VALID,0.0339617,VALID,18.2512,VALID,109,VALID,0.786222,
2008-05-26, 02:40:00,VALID,915.741,VALID,0,VALID,100,VALID,0.0509425,VALID,18.2375,VALID,105,VALID,1.05342,
2008-05-26, 02:41:00,VALID,915.733,VALID,0,VALID,100,VALID,0.0509425,VALID,18.2576,VALID,107,VALID,0.963672,
2008-05-26, 02:42:00,VALID,915.717,VALID,0,VALID,100,VALID,0.0169808,VALID,18.2609,VALID,110,VALID,1.20443,
2008-05-26, 02:43:00,VALID,915.696,VALID,0,VALID,100,VALID,0.0509425,VALID,18.2539,VALID,119,VALID,1.01228,
2008-05-26, 02:44:00,VALID,915.701,VALID,0,VALID,100,VALID,0.0339617,VALID,18.2704,VALID,132,VALID,1.3291,
2008-05-26, 02:45:00,VALID,915.683,VALID,0,VALID,100,VALID,0.0679233,VALID,18.3091,VALID,133,VALID,1.69341,
2008-05-26, 02:46:00,VALID,915.683,VALID,0,VALID,100,VALID,0.0339617,VALID,18.3158,VALID,138,VALID,0.930288,
2008-05-26, 02:47:00,VALID,915.669,VALID,0,VALID,100,VALID,0.0339617,VALID,18.3413,VALID,131,VALID,1.27995,
2008-05-26, 02:48:00,VALID,915.678,VALID,0,VALID,100,VALID,0.0509425,VALID,18.3413,VALID,132,VALID,1.2622,
2008-05-26, 02:49:00,VALID,915.675,VALID,0,VALID,100,VALID,0.0509425,VALID,18.3575,VALID,130,VALID,1.48177,
2008-05-26, 02:50:00,VALID,915.659,VALID,0,VALID,100,VALID,0.0509425,VALID,18.3707,VALID,134,VALID,1.32515,
2008-05-26, 02:51:00,VALID,915.647,VALID,0,VALID,100,VALID,0.0169808,VALID,18.3804,VALID,141,VALID,1.37835,
2008-05-26, 02:52:00,VALID,915.626,VALID,0,VALID,100,VALID,0.0339617,VALID,18.3871,VALID,140,VALID,1.1108,
2008-05-26, 02:53:00,VALID,915.604,VALID,0,VALID,100,VALID,-0.0339617,VALID,18.3846,VALID,134,VALID,1.2104,
2008-05-26, 02:54:00,VALID,915.585,VALID,0,VALID,100,VALID,-0.0849042,VALID,18.3751,VALID,135,VALID,1.19922,
2008-05-26, 02:55:00,VALID,915.57,VALID,0,VALID,100,VALID,-0.0509425,VALID,18.3746,VALID,135,VALID,1.39881,
2008-05-26, 02:56:00,VALID,915.561,VALID,0,VALID,100,VALID,-0.0679233,VALID,18.3881,VALID,133,VALID,1.34339,
2008-05-26, 02:57:00,VALID,915.54,VALID,0,VALID,100,VALID,-0.0509425,VALID,18.3883,VALID,138,VALID,1.10751,
2008-05-26, 02:58:00,VALID,915.541,VALID,0,VALID,100,VALID,-0.0339617,VALID,18.3846,VALID,127,VALID,1.03229,
2008-05-26, 02:59:00,VALID,915.54,VALID,0,VALID,100,VALID,-0.0169808,VALID,18.3809,VALID,129,VALID,0.936228,
2008-05-26, 03:00:00,VALID,915.54,VALID,0,VALID,100,VALID,-0.0849042,VALID,18.3952,VALID,134,VALID,0.947731,
2008-05-26, 03:01:00,VALID,915.536,VALID,0,VALID,100,VALID,-0.0509425,VALID,18.3915,VALID,138,VALID,1.14418,
2008-05-26, 03:02:00,VALID,915.538,VALID,0,VALID,100,VALID,-0.0509425,VALID,18.3976,VALID,122,VALID,0.926339,
2008-05-26, 03:03:00,VALID,915.538,VALID,0,VALID,100,VALID,-0.0679233,VALID,18.4015,VALID,131,VALID,0.661523,
2008-05-26, 03:04:00,VALID,915.539,VALID,0,VALID,100,VALID,-0.0679233,VALID,18.398,VALID,92,VALID,0.68564,
2008-05-26, 03:05:00,VALID,915.548,VALID,0,VALID,100,VALID,-0.0679233,VALID,18.3843,VALID,59,VALID,0.583984,
2008-05-26, 03:06:00,VALID,915.559,VALID,0,VALID,100,VALID,-0.0679233,VALID,18.392,VALID,55,VALID,0.417492,
2008-05-26, 03:07:00,VALID,915.577,VALID,0,VALID,100,VALID,-0.0509425,VALID,18.3786,VALID,61,VALID,0.0447443,
2008-05-26, 03:08:00,VALID,915.583,VALID,0,VALID,100,VALID,-0.0169808,VALID,18.382,VALID,83,VALID,0,
2008-05-26, 03:09:00,VALID,915.581,VALID,0,VALID,100,VALID,-0.0509425,VALID,18.3788,VALID,96,VALID,0,
2008-05-26, 03:10:00,VALID,915.575,VALID,0,VALID,100,VALID,-0.0679233,VALID,18.3918,VALID,110,VALID,0,
2008-05-26, 03:11:00,VALID,915.576,VALID,0,VALID,100,VALID,-0.0679233,VALID,18.3983,VALID,112,VALID,0,
2008-05-26, 03:12:00,VALID,915.573,VALID,0,VALID,100,VALID,-0.0339617,VALID,18.401,VALID,112,VALID,0,
2008-05-26, 03:13:00,VALID,915.583,VALID,0,VALID,100,VALID,-0.0509425,VALID,18.3911,VALID,112,VALID,0,
2008-05-26, 03:14:00,VALID,915.587,VALID,0,VALID,100,VALID,-0.0679233,VALID,18.3983,VALID,112,VALID,0,
2008-05-26, 03:15:00,VALID,915.59,VALID,0,VALID,100,VALID,-0.0509425,VALID,18.3976,VALID,112,VALID,0,
2008-05-26, 03:16:00,VALID,915.59,VALID,0,VALID,100,VALID,-0.0679233,VALID,18.4272,VALID,112,VALID,0,
2008-05-26, 03:17:00,VALID,915.6,VALID,0,VALID,100,VALID,-0.0679233,VALID,18.443,VALID,102,VALID,0,
2008-05-26, 03:18:00,VALID,915.616,VALID,0,VALID,100,VALID,-0.0509425,VALID,18.4761,VALID,86,VALID,0,
2008-05-26, 03:19:00,VALID,915.617,VALID,0,VALID,100,VALID,-0.0339617,VALID,18.4756,VALID,75,VALID,0,
2008-05-26, 03:20:00,VALID,915.63,VALID,0,VALID,100,VALID,-0.0509425,VALID,18.4888,VALID,49,VALID,0,
2008-05-26, 03:21:00,VALID,915.627,VALID,0,VALID,100,VALID,-0.0339617,VALID,18.4951,VALID,48,VALID,0,
2008-05-26, 03:22:00,VALID,915.632,VALID,0,VALID,100,VALID,-0.0679233,VALID,18.5083,VALID,48,VALID,0,
2008-05-26, 03:23:00,VALID,915.653,VALID,0,VALID,100,VALID,-0.0169808,VALID,18.5236,VALID,48,VALID,0,
2008-05-26, 03:24:00,VALID,915.659,VALID,0,VALID,100,VALID,0,VALID,18.5393,VALID,48,VALID,0,
2008-05-26, 03:25:00,VALID,915.647,VALID,0,VALID,100,VALID,0.0679233,VALID,18.5623,VALID,48,VALID,0,
2008-05-26, 03:26:00,VALID,915.657,VALID,0,VALID,100,VALID,0,VALID,18.5683,VALID,48,VALID,0,
2008-05-26, 03:27:00,VALID,915.654,VALID,0,VALID,100,VALID,0.0509425,VALID,18.5785,VALID,48,VALID,0,
2008-05-26, 03:28:00,VALID,915.656,VALID,0,VALID,100,VALID,0,VALID,18.5812,VALID,48,VALID,0,
2008-05-26, 03:29:00,VALID,915.638,VALID,0,VALID,100,VALID,0.0339617,VALID,18.5683,VALID,48,VALID,0,
2008-05-26, 03:30:00,VALID,915.636,VALID,0,VALID,100,VALID,0.0679233,VALID,18.5914,VALID,48,VALID,0,
2008-05-26, 03:31:00,VALID,915.615,VALID,0,VALID,100,VALID,0.0509425,VALID,18.5877,VALID,48,VALID,0,
2008-05-26, 03:32:00,VALID,915.592,VALID,0,VALID,100,VALID,0.0169808,VALID,18.5907,VALID,48,VALID,0,
2008-05-26, 03:33:00,VALID,915.595,VALID,0,VALID,100,VALID,0.0339617,VALID,18.6012,VALID,48,VALID,0,
2008-05-26, 03:34:00,VALID,915.565,VALID,0,VALID,100,VALID,0.0169808,VALID,18.6012,VALID,48,VALID,0,
2008-05-26, 03:35:00,VALID,915.557,VALID,0,VALID,100,VALID,0.0169808,VALID,18.6141,VALID,91,VALID,0,
2008-05-26, 03:36:00,VALID,915.544,VALID,0,VALID,100,VALID,0.0339617,VALID,18.6111,VALID,125,VALID,0,
2008-05-26, 03:37:00,VALID,915.527,VALID,0,VALID,100,VALID,0.0339617,VALID,18.6077,VALID,125,VALID,0,
2008-05-26, 03:38:00,VALID,915.514,VALID,0,VALID,100,VALID,0.0339617,VALID,18.6144,VALID,125,VALID,0,
2008-05-26, 03:39:00,VALID,915.502,VALID,0,VALID,100,VALID,0.0339617,VALID,18.61,VALID,125,VALID,0,
2008-05-26, 03:40:00,VALID,915.496,VALID,0,VALID,100,VALID,0.0339617,VALID,18.6169,VALID,125,VALID,0,
2008-05-26, 03:41:00,VALID,915.476,VALID,0,VALID,100,VALID,0.0509425,VALID,18.6269,VALID,125,VALID,0,
2008-05-26, 03:42:00,VALID,915.465,VALID,0,VALID,100,VALID,0.0509425,VALID,18.6331,VALID,125,VALID,0,
2008-05-26, 03:43:00,VALID,915.443,VALID,0,VALID,100,VALID,0.0169808,VALID,18.6558,VALID,111,VALID,0,
2008-05-26, 03:44:00,VALID,915.443,VALID,0,VALID,100,VALID,0.0169808,VALID,18.6785,VALID,98,VALID,0,
2008-05-26, 03:45:00,VALID,915.436,VALID,0,VALID,100,VALID,0.0339617,VALID,18.6593,VALID,82,VALID,0,